Temperature
22 22 21 21 20 20 19 19 19 19 18 18 18 18 18 18 18 18 18 18 18 18 18 18 17 17 17 17 17 17 17 17 17 17 17 17 17 17 17 17 17 17 17
21 21 21 20 20 20 19 19 19 19 19 19 18 18 18 18 18 18 18 18 18 18 18 18 18 17 17 17 17 17 17 17 17 17 17 17 17 17 17 17 17 17 17
21 20 20 20 20 19 19 19 19 19 18 18 18 18 18 18 18 18 18 17 18 18 18 18 17 17 17 17 17 17 17 17 17 17 17 17 17 17 17 17 17 17 17
21 21 20 20 20 19 19 19 19 18 18 18 18 18 18 18 18 18 18 17 17 17 17 17 17 17 17 17 17 17 17 17 17 17 17 18 18 18 18 18 18 17 17
21 21 20 20 20 19 19 19 19 18 18 18 18 18 18 18 18 18 17 17 17 17 17 17 17 17 17 17 17 17 17 17 17 17 17 17 17 18 18 18 18 18 18
21 21 20 20 20 19 19 19 19 18 18 18 18 18 18 18 18 17 17 17 17 17 17 17 17 17 17 17 17 17 17 17 17 17 17 17 17 18 18 18 18 18 18
21 20 20 20 19 19 19 19 18 18 18 18 18 18 18 18 18 18 18 18 17 17 17 17 17 17 17 17 17 17 17 17 17 17 17 17 17 17 17 18 18 18 18
21 21 20 20 20 19 19 19 18 18 18 18 18 18 18 18 18 18 18 18 18 18 17 17 17 17 17 17 17 17 17 17 17 17 17 17 17 17 17 17 17 17 17
21 21 21 20 20 19 19 19 18 18 18 18 18 18 18 18 18 17 17 17 17 17 17 17 17 17 17 17 17 17 17 17 17 17 17 17 17 17 17 17 17 17 17
21 21 21 20 20 19 19 19 18 18 18 18 18 18 18 18 17 17 17 17 17 17 17 17 17 17 17 17 17 17 17 17 16 16 16 17 17 17 17 17 17 17 17
21 21 21 20 20 19 19 19 18 18 18 18 18 18 17 17 17 17 17 17 17 17 17 17 17 17 17 17 17 16 16 16 16 16 16 16 16 16 16 16 16 16 16
21 21 21 20 20 19 19 19 18 18 18 18 18 17 17 17 17 17 17 17 17 17 17 17 17 17 16 16 16 16 16 16 16 16 16 16 16 16 16 16 16 16 16
21 21 21 20 20 19 19 19 18 18 18 18 18 17 17 17 17 17 17 17 17 17 17 16 16 16 16 16 16 16 16 16 16 16 16 16 16 15 15 15 15 15 15
21 21 20 20 20 19 19 19 18 18 18 18 17 17 17 17 17 17 17 17 17 16 16 16 16 16 16 16 16 16 16 16 15 15 15 15 15 15 15 15 15 15 15
21 21 21 20 20 19 19 19 18 18 18 18 17 17 17 17 17 17 16 16 16 16 16 16 16 16 16 16 16 15 15 15 15 15 14 14 14 14 14 14 14 14 14
20 21 20 20 20 19 19 19 18 18 18 17 17 17 17 17 16 16 16 16 16 16 15 15 15 15 15 15 15 15 15 15 14 14 14 14 14 14 13 13 13 13 13
20 20 20 20 20 20 19 19 18 18 17 17 17 17 16 16 16 16 16 16 15 15 15 15 15 15 15 15 14 14 14 14 14 14 14 13 13 13 13 12 12 12 12
20 20 20 20 19 19 19 18 18 18 17 17 16 16 16 16 16 15 15 15 15 15 15 15 14 14 14 14 14 14 13 13 13 13 13 12 12 12 12 12 11 11 11
21 21 20 20 19 19 18 18 18 17 17 16 16 16 16 16 15 15 15 15 15 14 14 14 14 14 13 13 13 13 13 13 12 12 12 12 11 11 11 11 11 10 10
20 20 19 19 19 18 18 18 17 17 16 16 16 16 15 15 15 15 15 14 14 14 14 14 13 13 13 12 12 12 12 12 12 11 11 11 10 10 10 10 10 9 9
20 19 19 18 18 18 17 17 17 16 16 16 16 15 15 15 15 14 14 14 14 13 13 13 12 12 12 12 11 11 11 11 11 11 10 10 10 9 9 9 9 8 8
19 19 18 18 17 17 17 17 16 16 15 15 15 15 14 14 14 14 13 13 13 13 12 12 11 11 11 11 11 11 10 10 10 10 9 9 9 8 8 8 8 8 8
18 18 18 17 16 16 16 16 16 15 15 15 14 14 14 14 13 13 13 12 12 12 12 11 11 10 10 10 10 10 10 9 9 9 8 8 8 8 8 7 7 7 7
17 17 17 16 16 15 15 15 15 15 14 14 14 13 13 13 12 12 12 12 11 11 11 11 10 10 9 9 9 9 9 8 8 8 8 7 7 7 7 7 7 6 6
16 16 16 16 15 15 14 14 14 14 14 14 13 13 12 12 12 11 11 11 11 11 11 10 10 10 9 9 8 8 8 8 8 7 7 7 7 7 6 6 6 6 6
15 15 15 15 14 14 14 14 13 13 13 13 12 12 12 11 11 11 10 10 10 10 9 9 9 9 8 8 8 8 7 7 7 7 7 7 6 6 6 6 5 5 5
Wind_Speed
8 10 11 12 12 11 11 11 11 10 9 6 5 5 5 5 5 6 9 11 11 10 8 5 5 4 4 4 5 3 3 2 2 3 2 3 1 3 4 5 6 9 13
9 9 10 10 11 11 11 10 10 11 9 7 5 5 5 5 5 4 6 10 10 10 9 6 4 4 4 4 4 3 3 1 2 3 3 1 4 3 3 3 5 6 9
14 12 11 10 10 11 12 11 11 11 10 8 5 5 4 3 3 4 4 6 9 9 8 8 5 4 5 4 4 4 5 3 1 2 4 3 3 3 3 3 4 5 5
12 12 11 11 11 11 10 10 10 10 9 9 8 8 7 6 5 5 4 5 7 7 8 8 6 5 4 4 4 4 4 4 2 1 1 3 4 3 1 3 2 3 5
13 12 11 11 10 10 10 9 10 9 8 8 9 8 6 5 4 4 6 5 4 5 7 7 6 5 4 4 4 4 4 3 4 2 2 1 1 2 3 2 3 2 3
12 10 8 7 7 7 8 9 9 8 8 8 9 9 9 8 7 6 6 5 4 4 5 7 6 5 4 5 5 5 5 4 3 3 3 3 2 2 3 3 3 3 3
12 11 10 10 8 9 9 9 10 9 8 8 8 9 9 9 9 7 7 6 4 4 6 5 5 5 5 6 5 5 4 4 4 3 3 2 2 3 3 3 2 2 2
11 11 11 11 10 10 9 9 10 9 9 9 8 7 8 7 6 6 6 6 5 5 6 6 6 6 7 6 5 4 4 3 3 4 3 2 2 2 3 4 3 1 1
12 11 10 9 9 9 9 10 10 8 9 9 8 7 7 7 7 6 5 5 5 5 6 6 6 6 6 5 5 4 4 3 3 3 3 2 1 1 1 2 3 4 2
10 10 10 9 8 8 7 8 8 9 8 8 8 7 7 7 7 6 6 5 6 5 6 6 6 6 5 5 5 4 3 4 3 3 3 2 1 1 1 2 2 3 4
11 10 8 8 8 8 8 8 8 7 7 7 7 6 6 6 6 5 6 5 5 5 5 6 5 5 5 5 4 4 4 4 3 2 3 3 2 2 1 2 2 2 3
9 10 10 9 8 8 8 8 7 7 7 7 6 6 5 5 5 4 4 5 5 4 5 4 5 5 5 4 5 5 4 4 4 3 3 2 2 2 1 2 2 1 2
9 8 9 9 9 8 8 7 7 7 7 7 6 6 5 5 4 3 3 4 4 4 4 4 4 4 3 4 4 4 4 4 3 3 3 3 4 3 2 2 2 2 3
10 9 8 8 8 8 8 8 7 7 7 7 6 6 6 5 5 4 4 4 4 4 4 4 4 3 3 3 4 5 6 6 5 4 3 3 3 3 3 3 3 3 5
9 10 10 9 9 8 8 8 7 7 7 8 7 6 6 6 5 5 5 5 5 5 4 4 4 4 3 3 6 7 7 7 7 6 5 5 7 8 5 4 3 4 5
8 9 10 10 9 10 9 9 8 7 8 8 7 6 7 7 6 6 6 6 6 6 6 5 6 5 4 7 9 8 8 7 7 6 6 7 8 11 12 12 10 8 6
8 9 10 9 9 9 10 9 8 8 8 8 7 7 7 8 7 7 7 7 6 7 7 6 7 7 7 10 10 10 8 7 6 5 6 6 7 9 9 12 14 13 12
9 9 8 8 7 7 8 9 9 9 8 8 7 7 8 8 8 8 7 7 6 7 7 6 7 7 8 10 11 12 9 8 7 6 6 7 6 7 8 9 9 8 7
8 8 8 7 7 8 9 10 10 9 9 8 7 7 8 9 9 9 8 7 7 8 7 6 7 8 7 9 11 11 8 8 7 7 6 7 7 8 10 9 9 8 7
7 8 8 8 8 7 9 10 9 9 8 7 8 7 8 9 9 9 8 7 8 8 8 8 7 7 7 9 11 11 8 8 7 6 7 9 8 9 10 8 8 8 5
9 9 9 8 7 8 10 10 8 8 7 8 8 8 8 9 9 9 8 9 9 9 9 9 8 7 7 8 9 9 7 7 7 6 6 6 11 11 11 9 6 6 5
8 8 8 7 7 8 10 10 8 7 8 9 9 8 8 8 9 10 9 8 9 10 9 9 8 6 6 7 8 9 8 8 8 7 5 6 10 11 11 8 9 10 8
8 8 10 9 7 6 9 10 7 8 9 10 9 9 9 8 8 9 9 7 7 8 7 7 7 6 5 7 10 11 11 11 8 7 9 9 10 10 8 10 10 8 6
8 7 9 9 8 6 7 8 8 9 10 11 10 9 10 9 8 6 6 7 6 7 7 7 7 6 5 5 5 5 8 10 9 7 8 10 10 8 8 7 6 5 5
7 7 9 9 8 7 7 7 8 10 11 10 10 9 9 10 9 8 6 6 5 6 8 6 7 7 6 3 6 6 5 5 5 6 5 5 5 6 6 5 6 5 5
7 8 8 8 8 8 8 7 8 10 12 10 9 8 8 8 9 9 9 14 11 13 12 10 9 6 8 10 11 11 10 10 9 8 6 5 5 5 5 5 4 4 4
Wind_Direction
167 159 156 155 153 156 157 160 161 161 159 159 154 147 157 166 167 173 170 168 168 164 156 162 164 155 156 164 156 139 135 143 127 91 38 345 318 223 206 201 197 205 209
149 152 152 154 158 161 160 163 166 166 168 167 162 158 155 161 169 171 168 172 172 171 167 161 166 160 151 151 152 141 138 139 134 129 109 16 336 316 239 210 202 205 205
160 159 159 160 161 165 168 171 171 169 170 163 145 131 117 108 136 164 170 180 177 175 167 166 164 164 158 164 168 157 148 159 184 152 146 154 216 275 303 243 217 202 198
161 162 162 164 169 172 170 170 170 169 168 162 159 158 162 169 183 177 177 179 174 173 171 167 167 165 164 174 181 163 154 149 167 198 197 177 160 162 266 307 266 221 208
165 166 168 171 169 168 169 169 168 170 169 166 166 164 168 171 165 158 167 176 180 175 172 171 164 167 172 177 172 155 156 159 163 173 180 154 133 139 149 234 287 291 240
164 161 160 161 162 165 168 166 166 172 171 168 168 171 171 165 161 168 174 177 183 183 181 174 171 173 176 183 182 170 165 169 160 161 159 156 161 184 164 191 233 250 268
160 158 161 167 171 172 171 168 167 171 172 171 175 177 175 170 173 178 181 179 184 191 193 182 179 181 184 187 181 173 176 172 169 172 172 172 185 172 162 163 201 236 281
161 166 170 173 176 175 171 169 171 171 174 177 180 178 174 173 177 182 183 187 193 199 190 182 184 187 186 186 176 175 182 174 179 186 178 175 190 172 170 169 161 153 331
165 169 169 168 172 172 173 174 174 174 179 182 180 175 173 173 179 184 186 191 195 199 190 186 188 190 184 179 169 175 182 169 177 183 178 176 182 159 160 159 163 158 173
162 165 166 164 165 168 167 168 174 180 183 181 179 177 177 179 180 183 191 197 196 190 181 186 184 183 183 180 172 175 179 176 188 181 174 174 172 131 112 125 128 146 158
165 164 166 166 163 161 161 166 173 175 177 175 173 170 173 176 175 185 195 190 183 176 174 180 179 178 179 177 172 181 178 179 189 188 174 184 164 140 121 102 107 122 135
162 160 164 164 164 164 166 169 171 173 173 166 161 163 164 163 166 175 185 178 174 169 170 168 171 178 176 175 176 184 178 171 170 177 163 170 148 123 109 100 101 120 134
159 162 165 164 166 165 165 167 171 171 163 153 152 153 153 157 161 160 150 145 151 151 154 151 157 162 163 167 173 162 148 141 141 150 146 146 129 118 97 95 89 85 91
160 161 165 164 164 165 165 162 164 161 152 146 148 152 155 153 149 142 132 127 133 130 129 132 143 144 145 147 143 131 122 113 99 90 97 104 117 124 115 97 91 96 91
158 165 164 160 160 161 160 156 156 153 148 144 146 151 149 141 132 127 122 115 114 114 108 108 109 110 115 123 127 126 121 116 105 90 84 85 91 89 94 100 101 105 105
160 159 156 157 160 163 161 154 153 153 145 144 146 143 137 131 125 121 112 106 102 99 97 96 96 92 100 103 112 122 119 116 114 107 95 87 81 84 81 80 80 89 107
160 163 162 162 163 160 156 154 151 143 138 138 137 135 131 125 120 116 107 105 102 95 90 88 92 93 94 101 108 113 115 110 108 109 106 97 88 85 85 77 72 67 71
161 156 157 153 150 144 143 139 133 133 135 134 134 135 131 125 120 115 112 106 102 99 96 91 94 96 93 99 103 104 99 93 88 92 101 103 94 91 96 90 78 68 58
150 141 144 143 137 138 140 134 131 131 130 130 134 134 131 128 123 120 117 113 107 101 97 95 95 96 91 94 103 107 102 96 84 79 83 96 96 95 100 97 91 77 61
127 123 123 122 129 134 131 128 132 131 134 136 134 130 128 126 123 120 116 110 107 104 99 88 83 92 95 95 102 110 110 105 96 82 75 78 89 89 93 97 98 91 75
111 117 119 124 134 134 126 123 124 129 131 124 120 119 120 122 121 115 113 112 109 104 99 92 80 77 84 89 97 109 115 118 110 98 85 75 81 84 84 88 92 100 102
105 110 118 117 118 126 128 127 128 130 123 119 116 115 117 120 117 115 112 112 113 108 105 100 89 71 66 79 97 103 104 110 108 104 97 89 85 80 79 80 82 85 86
109 110 116 112 105 112 128 131 136 129 121 115 112 110 106 105 111 117 119 116 113 115 113 110 105 89 74 75 85 94 98 99 98 103 105 96 86 76 70 72 75 76 79
109 112 117 118 117 112 117 127 129 124 120 117 114 113 111 105 97 98 109 117 119 121 122 121 116 108 92 83 81 88 93 90 90 92 86 80 74 70 66 63 58 58 72
110 115 120 124 125 119 118 122 126 125 120 118 117 114 111 109 98 85 72 94 97 127 132 131 128 128 119 112 114 113 105 106 107 100 81 71 70 67 64 60 57 54 55
114 117 119 123 125 124 121 121 124 128 127 124 122 119 117 113 111 106 84 60 78 90 95 103 111 100 110 115 105 99 100 102 104 93 89 86 85 87 87 83 68 57 56
Height
1504 1506 1508 1509 1512 1514 1517 1519 1522 1526 1529 1533 1536 1539 1542 1545 1548 1551 1553 1555 1557 1560 1562 1564 1565 1567 1569 1570 1572 1573 1575 1576 1577 1578 1579 1580 1580 1581 1581 1582 1582 1583 1583
1503 1505 1507 1509 1511 1513 1515 1518 1521 1524 1527 1531 1535 1538 1541 1544 1547 1550 1552 1554 1556 1558 1560 1562 1564 1566 1568 1569 1571 1572 1573 1575 1576 1577 1578 1579 1580 1579 1580 1581 1581 1581 1582
1500 1503 1505 1507 1510 1512 1514 1517 1520 1523 1526 1530 1534 1537 1540 1543 1545 1547 1550 1552 1555 1557 1559 1561 1563 1565 1566 1568 1569 1571 1572 1573 1575 1576 1577 1577 1577 1578 1579 1579 1580 1580 1580
1499 1501 1504 1506 1509 1511 1514 1517 1520 1522 1526 1529 1532 1535 1537 1540 1542 1545 1548 1550 1553 1555 1557 1559 1561 1563 1565 1566 1568 1569 1570 1572 1573 1574 1575 1576 1576 1577 1577 1578 1578 1579 1579
1498 1500 1503 1506 1508 1511 1514 1516 1519 1522 1525 1527 1531 1534 1536 1538 1541 1543 1546 1548 1551 1553 1555 1557 1559 1561 1563 1564 1566 1567 1569 1570 1571 1572 1573 1574 1574 1575 1575 1575 1576 1577 1577
1498 1501 1504 1507 1509 1511 1513 1515 1517 1520 1523 1526 1529 1531 1534 1536 1539 1541 1544 1546 1548 1551 1553 1555 1557 1559 1561 1562 1564 1565 1567 1568 1569 1570 1571 1572 1573 1573 1573 1574 1574 1574 1575
1498 1501 1504 1506 1508 1510 1512 1514 1516 1518 1521 1524 1527 1530 1532 1534 1537 1539 1541 1543 1546 1548 1550 1552 1554 1556 1558 1560 1561 1563 1564 1565 1567 1568 1569 1570 1571 1571 1572 1572 1572 1573 1573
1497 1500 1503 1505 1507 1509 1512 1513 1515 1517 1520 1522 1525 1528 1530 1533 1535 1537 1539 1541 1543 1546 1548 1550 1552 1554 1556 1557 1559 1560 1561 1563 1564 1565 1566 1567 1568 1569 1569 1570 1571 1571 1571
1497 1499 1502 1505 1507 1509 1511 1512 1514 1516 1518 1520 1523 1525 1528 1530 1533 1535 1537 1539 1541 1544 1546 1548 1549 1551 1553 1554 1556 1557 1558 1560 1561 1562 1564 1565 1566 1566 1567 1568 1568 1569 1569
1497 1500 1502 1504 1506 1508 1510 1512 1513 1515 1517 1519 1521 1523 1526 1528 1531 1533 1535 1537 1539 1541 1543 1545 1547 1548 1550 1551 1553 1554 1555 1557 1558 1559 1560 1561 1563 1563 1564 1565 1565 1566 1567
1497 1499 1502 1504 1506 1508 1510 1511 1512 1514 1516 1518 1520 1521 1524 1527 1529 1531 1533 1535 1537 1539 1541 1543 1544 1546 1547 1548 1550 1551 1552 1554 1555 1556 1557 1558 1559 1560 1561 1562 1562 1563 1564
1496 1499 1501 1504 1506 1507 1509 1511 1512 1514 1515 1517 1519 1521 1523 1525 1527 1529 1531 1533 1535 1537 1538 1540 1541 1543 1544 1545 1546 1548 1549 1551 1552 1553 1554 1555 1556 1557 1558 1558 1559 1560 1560
1496 1499 1502 1503 1505 1507 1509 1511 1512 1514 1515 1517 1519 1521 1522 1524 1526 1527 1529 1531 1533 1534 1536 1537 1539 1540 1541 1542 1544 1545 1546 1547 1549 1550 1551 1552 1552 1553 1554 1555 1556 1557 1557
1495 1498 1501 1503 1505 1507 1509 1511 1512 1514 1515 1517 1518 1520 1521 1523 1525 1526 1528 1529 1530 1532 1534 1535 1536 1537 1539 1540 1541 1542 1542 1544 1545 1546 1548 1549 1549 1550 1551 1552 1553 1554 1555
1493 1496 1498 1501 1504 1506 1508 1510 1512 1513 1515 1516 1518 1519 1521 1522 1524 1525 1526 1528 1529 1530 1531 1533 1534 1535 1536 1537 1538 1539 1540 1541 1543 1544 1545 1546 1547 1547 1548 1549 1550 1551 1552
1492 1495 1498 1500 1502 1505 1507 1509 1511 1513 1514 1516 1517 1519 1520 1521 1523 1524 1525 1526 1528 1529 1530 1531 1532 1533 1534 1535 1536 1537 1538 1539 1541 1541 1542 1543 1544 1545 1546 1547 1548 1549 1550
1491 1495 1497 1499 1501 1504 1506 1507 1510 1512 1514 1515 1517 1518 1519 1521 1522 1523 1525 1525 1526 1528 1529 1530 1531 1531 1533 1534 1535 1536 1537 1538 1539 1540 1541 1541 1542 1544 1544 1545 1546 1547 1548
1490 1494 1497 1499 1501 1503 1505 1507 1509 1511 1513 1514 1516 1517 1519 1520 1521 1522 1523 1524 1526 1527 1528 1528 1529 1530 1532 1533 1534 1535 1536 1537 1538 1539 1540 1541 1542 1543 1544 1545 1545 1546 1546
1489 1491 1494 1497 1500 1502 1504 1505 1508 1510 1512 1513 1515 1516 1518 1519 1520 1521 1522 1524 1525 1526 1527 1528 1529 1529 1531 1532 1533 1534 1535 1536 1537 1538 1539 1540 1541 1543 1544 1544 1544 1545 1545
1488 1491 1494 1497 1499 1501 1503 1505 1507 1508 1510 1512 1514 1516 1517 1518 1519 1520 1522 1523 1524 1525 1526 1527 1528 1529 1530 1532 1533 1534 1535 1535 1537 1538 1539 1540 1541 1543 1544 1544 1545 1545 1546
1489 1491 1494 1496 1498 1501 1503 1504 1506 1508 1509 1511 1513 1515 1516 1517 1519 1520 1521 1522 1524 1525 1526 1527 1528 1529 1531 1532 1533 1535 1535 1536 1537 1538 1540 1541 1542 1543 1544 1545 1546 1546 1547
1488 1490 1492 1495 1497 1500 1502 1503 1505 1507 1509 1511 1512 1514 1515 1516 1518 1519 1520 1522 1523 1524 1526 1527 1528 1530 1531 1533 1534 1535 1536 1537 1538 1539 1540 1542 1543 1544 1545 1546 1547 1547 1548
1488 1490 1492 1495 1497 1499 1502 1503 1505 1507 1509 1510 1512 1513 1514 1515 1517 1519 1520 1521 1523 1524 1525 1527 1528 1530 1532 1534 1535 1536 1537 1538 1539 1540 1542 1543 1545 1546 1547 1548 1548 1549 1549
1489 1491 1492 1494 1496 1498 1501 1502 1504 1506 1507 1509 1511 1513 1514 1515 1517 1519 1520 1522 1523 1524 1526 1527 1529 1530 1532 1534 1536 1537 1538 1539 1541 1542 1544 1545 1547 1548 1548 1549 1550 1550 1551
1490 1491 1493 1494 1496 1498 1500 1502 1503 1505 1507 1508 1510 1512 1513 1515 1517 1518 1520 1522 1524 1526 1527 1528 1530 1531 1533 1535 1537 1539 1540 1541 1543 1545 1546 1547 1549 1549 1550 1551 1551 1552 1552
1489 1491 1492 1493 1495 1497 1499 1501 1503 1505 1506 1508 1509 1511 1513 1515 1517 1518 1521 1523 1526 1528 1529 1531 1532 1534 1536 1537 1539 1541 1542 1544 1545 1547 1548 1549 1550 1551 1552 1552 1553 1553 1553